Flag for French Guiana Weather past 2 weeks in Cayenne, French Guiana

88 °F

Passing clouds.

Feels Like: 100 °F
Forecast: 79 / 85 °F
Wind: 12 mph from East

Location: Cayenne / Rochambeau

Current Time: Nov 26, 2015 at 3:14:46 PM

Latest Report: Nov 26, 2015 at 2:30 PM

Visibility: N/A

Pressure: 29.83 "Hg

Humidity: 70%

Dew point: 77 °F

Location of CayenneLocation

Historic Weather in Cayenne — Graph


Cayenne temperature yesterday

Maximum temperature yesterday: 88 °F (at 10:00 AM)
Minimum temperature yesterday: 77 °F (at 2:30 AM)
Average temperature yesterday: 82 °F

Past Weeks' High & Low Weather Summary

High91 °F (Nov 19, 1:00 PM)100% (Nov 11, 11:00 PM)29.95 "Hg (Nov 11, 11:00 PM)
Low72 °F (Nov 19, 6:00 AM)55% (Nov 22, 11:00 AM)29.71 "Hg (Nov 18, 3:00 PM)
Average81 °F83%29.83 "Hg
* Reported Nov 11 2:00 PM — Nov 26 2:00 PM, Cayenne, Weather by CustomWeather, © 2015

Note: Actual official high and low records may vary slightly from our data, if they occured in-between our weather recording intervals... More about our weather records


Cayenne weather history for previous 24 hours

Time TempWeatherWind HumidityBarometerVisibility
2:00 PM
Thu, Nov 26
88 °FScattered clouds.16 mph66%29.86 "HgN/A
1:30 PM90 °FPassing clouds.14 mph63%29.86 "HgN/A
1:00 PM88 °FPartly sunny.16 mph70%29.89 "HgN/A
12:30 PM88 °FBroken clouds.14 mph66%29.89 "HgN/A
12:00 PM88 °FScattered clouds.12 mph66%29.89 "HgN/A
11:30 AM88 °FPassing clouds.14 mph66%29.92 "HgN/A
11:00 AM88 °FBroken clouds.12 mph70%29.92 "HgN/A
10:30 AM86 °FBroken clouds.13 mph75%29.92 "HgN/A
10:00 AM86 °FBroken clouds.13 mph75%29.89 "HgN/A
9:30 AM86 °FPartly sunny.10 mph70%29.89 "HgN/A
9:00 AM84 °FBroken clouds.6 mph79%29.89 "Hg4 mi
8:30 AM82 °FPartly sunny.6 mph84%29.89 "HgN/A
8:00 AM82 °FScattered clouds.5 mph84%29.86 "HgN/A
7:30 AM81 °FPassing clouds.3 mph89%29.86 "HgN/A
7:00 AM77 °FSunny.No wind94%29.83 "Hg10 mi
6:30 AM75 °FSunny.No wind100%29.83 "Hg10 mi
6:00 AM77 °FPassing clouds.No wind94%29.83 "HgN/A
5:30 AM75 °FPassing clouds.No wind100%29.83 "HgN/A
5:00 AM77 °FPassing clouds.No wind94%29.83 "HgN/A
4:30 AM75 °FPassing clouds.No wind100%29.83 "HgN/A
4:00 AM75 °FPassing clouds.No wind100%29.83 "HgN/A
3:30 AM77 °FPassing clouds.No wind94%29.83 "HgN/A
3:00 AM77 °FPassing clouds.No wind100%29.83 "HgN/A
2:30 AM77 °FPassing clouds.1 mph100%29.83 "HgN/A
2:00 AM77 °FPassing clouds.No wind94%29.83 "HgN/A
1:30 AM77 °FPassing clouds.No wind100%29.83 "HgN/A
1:00 AM79 °FPartly cloudy.No wind94%29.86 "HgN/A
12:00 AM79 °FPassing clouds.2 mph89%29.86 "HgN/A
11:30 PM
Wed, Nov 25
81 °FPassing clouds.2 mph89%29.89 "HgN/A
11:00 PM81 °FPassing clouds.3 mph89%29.89 "HgN/A
10:30 PM81 °FClear.3 mph89%29.89 "Hg10 mi
10:00 PM81 °FPassing clouds.7 mph89%29.86 "HgN/A
9:30 PM81 °FClear.6 mph89%29.86 "Hg10 mi
9:00 PM81 °FPassing clouds.6 mph89%29.86 "HgN/A
8:00 PM82 °FPartly cloudy.3 mph84%29.83 "HgN/A
7:30 PM82 °FPassing clouds.5 mph84%29.83 "HgN/A
7:00 PM82 °FMostly cloudy.6 mph84%29.83 "HgN/A
6:30 PM82 °FPassing clouds.5 mph84%29.80 "HgN/A
6:00 PM84 °FBroken clouds.6 mph79%29.80 "HgN/A
5:30 PM84 °FPassing clouds.7 mph79%29.80 "HgN/A
5:00 PM82 °FPassing clouds.7 mph84%29.80 "HgN/A
4:30 PM82 °FPartly sunny.6 mph79%29.80 "HgN/A
4:00 PM84 °FPartly sunny.13 mph79%29.80 "HgN/A
3:30 PM84 °FPassing clouds.13 mph79%29.80 "HgN/A
3:00 PM88 °FPartly sunny.14 mph66%29.80 "HgN/A
Weather by CustomWeather, © 2015

See weather overviewHow to use our weather pages